| time (UTC) | temp F | wind direction | speed MPH | gust MPH | rain 1hr in | rain 24hr in | rain mn in | humidity % | barometer mb |
| 20260506221914 | 56 | 239 | 1.0 | 2.0 | 0.00 | 0.82 | 0.00 | 93 | 1012.9 |
| 20260506221414 | 56 | 200 | 0.0 | 3.0 | 0.00 | 0.82 | 0.00 | 93 | 1012.9 |
| 20260506220415 | 56 | 63 | 0.0 | 3.0 | 0.00 | 0.82 | 0.00 | 93 | 1012.9 |
| 20260506215916 | 56 | 168 | 0.0 | 1.0 | 0.00 | 0.82 | 0.82 | 93 | 1012.9 |
| 20260506215414 | 56 | 216 | 0.0 | 1.0 | 0.00 | 0.82 | 0.82 | 93 | 1012.9 |
| 20260506214915 | 56 | 78 | 0.0 | 1.0 | 0.00 | 0.82 | 0.82 | 93 | 1012.9 |
| 20260506213914 | 56 | 63 | 0.0 | 1.0 | 0.00 | 0.82 | 0.82 | 92 | 1012.9 |
| 20260506213414 | 57 | 207 | 0.0 | 1.0 | 0.00 | 0.82 | 0.82 | 91 | 1012.9 |
| 20260506212914 | 56 | 249 | 0.0 | 2.0 | 0.00 | 0.82 | 0.82 | 91 | 1012.9 |
| 20260506212414 | 56 | 248 | 1.0 | 2.0 | 0.00 | 0.82 | 0.82 | 93 | 1012.9 |
| 20260506211913 | 56 | 203 | 0.0 | 2.0 | 0.00 | 0.82 | 0.82 | 94 | 1012.9 |
| 20260506211413 | 56 | 159 | 1.0 | 2.0 | 0.00 | 0.82 | 0.82 | 95 | 1012.5 |
| 20260506210414 | 56 | 245 | 0.0 | 1.0 | 0.00 | 0.82 | 0.82 | 95 | 1012.6 |
| 20260506203414 | 57 | 162 | 0.0 | 1.0 | 0.00 | 0.82 | 0.82 | 94 | 1012.5 |
| 20260506202914 | 57 | 209 | 0.0 | 1.0 | 0.00 | 0.82 | 0.82 | 94 | 1012.5 |
| 20260506202414 | 57 | 101 | 0.0 | 1.0 | 0.00 | 0.82 | 0.82 | 94 | 1012.5 |
| 20260506201915 | 57 | 218 | 0.0 | 1.0 | 0.00 | 0.82 | 0.82 | 95 | 1012.2 |
| 20260506201413 | 57 | 82 | 0.0 | 1.0 | 0.00 | 0.82 | 0.82 | 95 | 1012.2 |
| 20260506200915 | 57 | 64 | 1.0 | 1.0 | 0.00 | 0.82 | 0.82 | 95 | 1012.2 |
| 20260506200414 | 57 | 245 | 0.0 | 1.0 | 0.00 | 0.82 | 0.82 | 94 | 1011.9 |
| 20260506195914 | 57 | 124 | 0.0 | 1.0 | 0.00 | 0.82 | 0.82 | 94 | 1011.9 |
| 20260506195414 | 57 | 84 | 0.0 | 1.0 | 0.00 | 0.82 | 0.82 | 94 | 1011.9 |
| 20260506193914 | 57 | 206 | 0.0 | 1.0 | 0.00 | 0.82 | 0.82 | 93 | 1011.5 |
| 20260506193414 | 58 | 207 | 0.0 | 1.0 | 0.00 | 0.82 | 0.82 | 93 | 1011.5 |
| 20260506192414 | 58 | 103 | 0.0 | 2.0 | 0.00 | 0.82 | 0.82 | 94 | 1011.5 |
| 20260506191915 | 58 | 71 | 1.0 | 2.0 | 0.00 | 0.82 | 0.82 | 93 | 1011.4 |
| 20260506190913 | 58 | 237 | 1.0 | 1.0 | 0.00 | 0.82 | 0.82 | 93 | 1011.2 |
| 20260506190414 | 58 | 174 | 0.0 | 1.0 | 0.00 | 0.82 | 0.82 | 92 | 1010.8 |
| 20260506185914 | 58 | 152 | 0.0 | 1.0 | 0.00 | 0.82 | 0.82 | 92 | 1011.2 |
| 20260506185414 | 58 | 166 | 0.0 | 1.0 | 0.00 | 0.82 | 0.82 | 92 | 1010.8 |
| 20260506184915 | 58 | 133 | 0.0 | 1.0 | 0.00 | 0.82 | 0.82 | 92 | 1011.0 |
| 20260506184414 | 59 | 119 | 0.0 | 0.0 | 0.00 | 0.82 | 0.82 | 91 | 1011.2 |
| 20260506183914 | 59 | 186 | 0.0 | 3.0 | 0.00 | 0.82 | 0.82 | 90 | 1010.9 |
| 20260506183414 | 59 | 135 | 0.0 | 3.0 | 0.00 | 0.82 | 0.82 | 89 | 1010.5 |
| 20260506182415 | 58 | 150 | 0.0 | 1.0 | 0.00 | 0.82 | 0.82 | 92 | 1010.5 |
| 20260506181914 | 59 | 117 | 0.0 | 1.0 | 0.00 | 0.82 | 0.82 | 92 | 1010.6 |
| 20260506180916 | 58 | 73 | 0.0 | 2.0 | 0.00 | 0.82 | 0.82 | 91 | 1010.5 |
| 20260506180415 | 58 | 108 | 0.0 | 1.0 | 0.00 | 0.82 | 0.82 | 93 | 1010.5 |
| 20260506175914 | 59 | 166 | 0.0 | 1.0 | 0.00 | 0.82 | 0.82 | 93 | 1010.5 |
| 20260506175414 | 59 | 167 | 0.0 | 0.0 | 0.00 | 0.82 | 0.82 | 93 | 1010.2 |
| 20260506174414 | 59 | 169 | 0.0 | 1.0 | 0.00 | 0.82 | 0.82 | 92 | 1010.2 |
| 20260506173914 | 59 | 155 | 0.0 | 1.0 | 0.00 | 0.82 | 0.82 | 92 | 1009.8 |
| 20260506172914 | 59 | 155 | 0.0 | 2.0 | 0.00 | 0.82 | 0.82 | 93 | 1009.8 |
| 20260506172414 | 59 | 166 | 0.0 | 2.0 | 0.00 | 0.82 | 0.82 | 92 | 1009.8 |
| 20260506171914 | 59 | 220 | 1.0 | 2.0 | 0.00 | 0.82 | 0.82 | 93 | 1009.9 |
| 20260506171414 | 59 | 183 | 0.0 | 1.0 | 0.00 | 0.82 | 0.82 | 92 | 1009.8 |
| 20260506170415 | 59 | 149 | 0.0 | 1.0 | 0.00 | 0.82 | 0.82 | 92 | 1009.8 |
| 20260506165914 | 59 | 182 | 0.0 | 1.0 | 0.00 | 0.82 | 0.82 | 92 | 1009.8 |
| 20260506165414 | 59 | 152 | 0.0 | 1.0 | 0.00 | 0.82 | 0.82 | 92 | 1009.8 |
| 20260506164914 | 59 | 143 | 0.0 | 1.0 | 0.00 | 0.82 | 0.82 | 92 | 1009.8 |
| 20260506163915 | 60 | 136 | 0.0 | 1.0 | 0.00 | 0.82 | 0.82 | 91 | 1009.8 |
| 20260506163414 | 60 | 151 | 0.0 | 1.0 | 0.00 | 0.82 | 0.82 | 91 | 1009.6 |
| 20260506162914 | 60 | 196 | 0.0 | 1.0 | 0.00 | 0.82 | 0.82 | 91 | 1009.8 |
| 20260506162415 | 60 | 189 | 0.0 | 1.0 | 0.00 | 0.82 | 0.82 | 90 | 1009.8 |
| 20260506161914 | 60 | 160 | 0.0 | 1.0 | 0.00 | 0.82 | 0.82 | 90 | 1009.8 |
| 20260506161414 | 60 | 197 | 0.0 | 1.0 | 0.00 | 0.83 | 0.82 | 89 | 1009.8 |
| 20260506160415 | 60 | 186 | 0.0 | 1.0 | 0.00 | 0.83 | 0.82 | 89 | 1009.8 |
| 20260506155915 | 61 | 177 | 0.0 | 1.0 | 0.00 | 0.84 | 0.82 | 88 | 1009.8 |
| 20260506155414 | 61 | 201 | 0.0 | 1.0 | 0.00 | 0.84 | 0.82 | 88 | 1009.8 |
| 20260506154914 | 61 | 67 | 1.0 | 2.0 | 0.00 | 0.84 | 0.82 | 88 | 1009.8 |
| 20260506153916 | 62 | 165 | 0.0 | 1.0 | 0.00 | 0.85 | 0.82 | 85 | 1009.8 |
| 20260506152916 | 61 | 173 | 0.0 | 2.0 | 0.00 | 0.85 | 0.82 | 85 | 1009.8 |
| 20260506152415 | 62 | 73 | 1.0 | 1.0 | 0.00 | 0.85 | 0.82 | 86 | 1009.8 |
| 20260506151914 | 61 | 140 | 0.0 | 2.0 | 0.00 | 0.85 | 0.82 | 84 | 1010.2 |
| 20260506151415 | 61 | 71 | 0.0 | 2.0 | 0.00 | 0.85 | 0.82 | 81 | 1010.2 |
| 20260506150916 | 61 | 74 | 0.0 | 1.0 | 0.00 | 0.85 | 0.82 | 83 | 1010.2 |
| 20260506150414 | 61 | 254 | 0.0 | 2.0 | 0.00 | 0.85 | 0.82 | 80 | 1010.3 |
| 20260506145914 | 61 | 203 | 0.0 | 2.0 | 0.00 | 0.85 | 0.82 | 81 | 1010.4 |
| 20260506145414 | 62 | 259 | 0.0 | 1.0 | 0.00 | 0.85 | 0.82 | 82 | 1010.2 |
| 20260506144914 | 61 | 33 | 0.0 | 1.0 | 0.00 | 0.85 | 0.82 | 82 | 1010.3 |
| 20260506144414 | 61 | 35 | 0.0 | 1.0 | 0.00 | 0.85 | 0.82 | 82 | 1010.2 |
| 20260506143414 | 61 | 64 | 0.0 | 1.0 | 0.00 | 0.85 | 0.82 | 84 | 1010.5 |
| 20260506142914 | 60 | 170 | 0.0 | 2.0 | 0.00 | 0.85 | 0.82 | 84 | 1010.5 |
| 20260506142415 | 60 | 34 | 0.0 | 2.0 | 0.00 | 0.85 | 0.82 | 84 | 1010.8 |
| 20260506141914 | 60 | 256 | 1.0 | 2.0 | 0.00 | 0.85 | 0.82 | 84 | 1010.8 |
| 20260506141414 | 60 | 260 | 1.0 | 1.0 | 0.00 | 0.85 | 0.82 | 87 | 1010.9 |
| 20260506140414 | 59 | 141 | 0.0 | 1.0 | 0.06 | 0.85 | 0.82 | 86 | 1011.5 |
| 20260506135915 | 59 | 53 | 0.0 | 2.0 | 0.09 | 0.85 | 0.82 | 88 | 1011.2 |
| 20260506134415 | 59 | 69 | 0.0 | 3.0 | 0.13 | 0.85 | 0.82 | 92 | 1011.7 |
| 20260506133414 | 58 | 61 | 1.0 | 3.0 | 0.19 | 0.85 | 0.82 | 94 | 1011.6 |
| 20260506132415 | 58 | 45 | 0.0 | 1.0 | 0.26 | 0.85 | 0.82 | 95 | 1011.6 |
| 20260506131414 | 57 | 40 | 1.0 | 1.0 | 0.29 | 0.85 | 0.82 | 95 | 1011.9 |
| 20260506130915 | 57 | 247 | 0.0 | 2.0 | 0.26 | 0.81 | 0.78 | 94 | 1012.2 |
| 20260506130414 | 57 | 65 | 0.0 | 5.0 | 0.26 | 0.79 | 0.76 | 94 | 1012.5 |
| 20260506125916 | 57 | 65 | 1.0 | 5.0 | 0.33 | 0.76 | 0.73 | 94 | 1012.2 |
| 20260506125414 | 58 | 67 | 2.0 | 5.0 | 0.42 | 0.74 | 0.71 | 93 | 1012.2 |
| 20260506124415 | 57 | 253 | 1.0 | 2.0 | 0.47 | 0.72 | 0.69 | 93 | 1012.2 |
| 20260506123914 | 57 | 158 | 0.0 | 2.0 | 0.45 | 0.70 | 0.67 | 93 | 1011.9 |
| 20260506122415 | 57 | 157 | 1.0 | 5.0 | 0.34 | 0.59 | 0.56 | 90 | 1011.9 |
| 20260506121415 | 58 | 244 | 2.0 | 8.0 | 0.31 | 0.56 | 0.53 | 88 | 1011.9 |
| 20260506120914 | 59 | 274 | 1.0 | 7.0 | 0.30 | 0.55 | 0.52 | 87 | 1011.9 |
| 20260506115915 | 61 | 185 | 2.0 | 7.0 | 0.18 | 0.43 | 0.40 | 89 | 1011.5 |
| 20260506115417 | 62 | 249 | 2.0 | 3.0 | 0.07 | 0.32 | 0.29 | 86 | 1010.8 |
| 20260506114914 | 62 | 2 | 0.0 | 2.0 | 0.00 | 0.26 | 0.22 | 80 | 1010.3 |
| 20260506114414 | 62 | 66 | 0.0 | 2.0 | 0.00 | 0.26 | 0.22 | 82 | 1010.0 |
| 20260506113914 | 62 | 67 | 2.0 | 2.0 | 0.00 | 0.26 | 0.22 | 80 | 1009.8 |
| 20260506113416 | 62 | 265 | 1.0 | 5.0 | 0.00 | 0.26 | 0.22 | 82 | 1009.9 |
| 20260506112914 | 62 | 256 | 0.0 | 5.0 | 0.00 | 0.26 | 0.22 | 82 | 1010.2 |
| 20260506112414 | 62 | 251 | 1.0 | 5.0 | 0.00 | 0.26 | 0.22 | 82 | 1010.2 |
| 20260506111914 | 62 | 253 | 1.0 | 3.0 | 0.00 | 0.26 | 0.22 | 81 | 1010.2 |
| 20260506111414 | 63 | 255 | 2.0 | 3.0 | 0.00 | 0.26 | 0.22 | 79 | 1010.5 |
| 20260506110915 | 63 | 264 | 0.0 | 1.0 | 0.01 | 0.27 | 0.22 | 76 | 1010.5 |
| 20260506110415 | 63 | 278 | 0.0 | 3.0 | 0.01 | 0.27 | 0.22 | 75 | 1010.5 |
| 20260506105915 | 62 | 303 | 1.0 | 3.0 | 0.01 | 0.27 | 0.22 | 74 | 1011.1 |
| 20260506105415 | 62 | 45 | 0.0 | 3.0 | 0.01 | 0.27 | 0.22 | 78 | 1010.8 |
| 20260506104914 | 62 | 37 | 0.0 | 3.0 | 0.01 | 0.27 | 0.22 | 82 | 1011.2 |
| 20260506104415 | 62 | 55 | 0.0 | 3.0 | 0.01 | 0.27 | 0.22 | 80 | 1011.2 |
| 20260506103416 | 62 | 48 | 1.0 | 3.0 | 0.01 | 0.28 | 0.22 | 82 | 1011.5 |
| 20260506102915 | 61 | 301 | 0.0 | 1.0 | 0.01 | 0.28 | 0.22 | 85 | 1011.5 |
| 20260506101916 | 60 | 32 | 1.0 | 1.0 | 0.01 | 0.30 | 0.22 | 88 | 1011.5 |
| 20260506101415 | 60 | 182 | 0.0 | 1.0 | 0.01 | 0.30 | 0.22 | 88 | 1011.5 |
| 20260506100915 | 60 | 18 | 0.0 | 2.0 | 0.00 | 0.30 | 0.21 | 90 | 1011.8 |
| 20260506095915 | 59 | 76 | 1.0 | 2.0 | 0.04 | 0.31 | 0.21 | 91 | 1011.9 |
| 20260506095415 | 60 | 82 | 0.0 | 2.0 | 0.05 | 0.31 | 0.21 | 90 | 1011.9 |
| 20260506094917 | 60 | 67 | 1.0 | 2.0 | 0.05 | 0.31 | 0.21 | 89 | 1011.5 |
| 20260506094414 | 60 | 60 | 0.0 | 1.0 | 0.05 | 0.31 | 0.21 | 88 | 1011.9 |
| 20260506093414 | 60 | 50 | 0.0 | 1.0 | 0.05 | 0.32 | 0.21 | 90 | 1011.9 |
| 20260506092914 | 59 | 54 | 0.0 | 1.0 | 0.05 | 0.32 | 0.21 | 91 | 1011.9 |
| 20260506092415 | 59 | 54 | 0.0 | 1.0 | 0.05 | 0.32 | 0.21 | 92 | 1011.9 |
| 20260506091415 | 58 | 193 | 0.0 | 2.0 | 0.05 | 0.32 | 0.21 | 93 | 1011.9 |
| 20260506090915 | 58 | 232 | 1.0 | 2.0 | 0.05 | 0.32 | 0.21 | 93 | 1011.9 |
| 20260506090414 | 58 | 91 | 0.0 | 2.0 | 0.04 | 0.32 | 0.20 | 92 | 1012.0 |
| 20260506085915 | 58 | 247 | 1.0 | 2.0 | 0.01 | 0.29 | 0.17 | 92 | 1011.9 |
| 20260506085414 | 58 | 233 | 1.0 | 1.0 | 0.00 | 0.28 | 0.16 | 92 | 1011.8 |
| 20260506084415 | 58 | 80 | 0.0 | 2.0 | 0.00 | 0.29 | 0.16 | 91 | 1011.9 |
| 20260506082914 | 58 | 67 | 0.0 | 1.0 | 0.00 | 0.30 | 0.16 | 91 | 1011.5 |
| 20260506082414 | 58 | 37 | 0.0 | 2.0 | 0.00 | 0.30 | 0.16 | 92 | 1011.9 |
| 20260506081915 | 58 | 49 | 0.0 | 2.0 | 0.00 | 0.31 | 0.16 | 92 | 1011.7 |
| 20260506081415 | 57 | 66 | 0.0 | 2.0 | 0.00 | 0.31 | 0.16 | 92 | 1011.9 |
| 20260506080914 | 58 | 76 | 0.0 | 2.0 | 0.00 | 0.31 | 0.16 | 94 | 1011.9 |
| 20260506073415 | 57 | 59 | 0.0 | 2.0 | 0.01 | 0.32 | 0.16 | 95 | 1011.9 |
| 20260506072915 | 56 | 107 | 0.0 | 1.0 | 0.02 | 0.32 | 0.16 | 95 | 1011.9 |
| 20260506072414 | 56 | 161 | 0.0 | 1.0 | 0.02 | 0.32 | 0.16 | 95 | 1012.0 |
| 20260506071416 | 56 | 161 | 0.0 | 0.0 | 0.04 | 0.32 | 0.16 | 96 | 1012.2 |
| 20260506070916 | 56 | 161 | 0.0 | 1.0 | 0.05 | 0.32 | 0.16 | 96 | 1011.9 |
| 20260506062415 | 56 | 66 | 1.0 | 1.0 | 0.14 | 0.30 | 0.14 | 95 | 1012.5 |
| 20260506061914 | 56 | 331 | 0.0 | 1.0 | 0.13 | 0.29 | 0.13 | 95 | 1012.9 |
| 20260506061415 | 55 | 80 | 0.0 | 1.0 | 0.12 | 0.28 | 0.12 | 95 | 1012.6 |
| 20260506060414 | 56 | 16 | 0.0 | 1.0 | 0.10 | 0.26 | 0.10 | 95 | 1012.9 |
| 20260506051414 | 55 | 70 | 0.0 | 1.0 | 0.00 | 0.16 | 0.00 | 94 | 1012.2 |
| 20260506050914 | 55 | 248 | 0.0 | 1.0 | 0.00 | 0.16 | 0.00 | 94 | 1012.3 |
| 20260506050415 | 55 | 244 | 0.0 | 1.0 | 0.00 | 0.16 | 0.00 | 94 | 1012.4 |
| 20260506044915 | 55 | 86 | 0.0 | 1.0 | 0.00 | 0.16 | 0.00 | 94 | 1012.2 |
| 20260506044415 | 55 | 247 | 0.0 | 2.0 | 0.00 | 0.16 | 0.00 | 94 | 1012.2 |
| 20260506043916 | 55 | 62 | 0.0 | 3.0 | 0.00 | 0.16 | 0.00 | 94 | 1012.2 |
| 20260506042914 | 55 | 184 | 0.0 | 3.0 | 0.00 | 0.16 | 0.00 | 95 | 1012.3 |
| 20260506042415 | 55 | 114 | 1.0 | 2.0 | 0.00 | 0.16 | 0.00 | 95 | 1012.2 |
| 20260506041914 | 55 | 126 | 1.0 | 2.0 | 0.00 | 0.16 | 0.00 | 95 | 1012.2 |
| 20260506041416 | 55 | 57 | 0.0 | 1.0 | 0.00 | 0.16 | 0.00 | 95 | 1012.2 |
| 20260506040915 | 55 | 66 | 0.0 | 2.0 | 0.00 | 0.16 | 0.00 | 95 | 1012.1 |
| 20260506040415 | 55 | 129 | 0.0 | 2.0 | 0.00 | 0.16 | 0.00 | 95 | 1012.0 |
| 20260506035914 | 55 | 111 | 1.0 | 2.0 | 0.00 | 0.16 | 0.00 | 95 | 1012.0 |
| 20260506035415 | 55 | 151 | 0.0 | 1.0 | 0.00 | 0.16 | 0.00 | 95 | 1012.1 |
| 20260506034914 | 55 | 165 | 0.0 | 1.0 | 0.00 | 0.16 | 0.00 | 95 | 1012.2 |
| 20260506034415 | 55 | 229 | 0.0 | 1.0 | 0.00 | 0.16 | 0.00 | 95 | 1012.2 |
| 20260506033914 | 55 | 229 | 0.0 | 1.0 | 0.00 | 0.16 | 0.00 | 95 | 1012.2 |
| 20260506032915 | 55 | 184 | 0.0 | 1.0 | 0.00 | 0.16 | 0.00 | 96 | 1012.2 |
| 20260506032416 | 55 | 241 | 0.0 | 1.0 | 0.00 | 0.16 | 0.00 | 96 | 1012.8 |
| 20260506031915 | 55 | 185 | 0.0 | 1.0 | 0.00 | 0.16 | 0.00 | 95 | 1012.5 |
| 20260506031414 | 55 | 76 | 0.0 | 1.0 | 0.00 | 0.16 | 0.00 | 95 | 1012.9 |
| 20260506030915 | 55 | 74 | 0.0 | 1.0 | 0.00 | 0.16 | 0.00 | 95 | 1012.9 |
| 20260506030414 | 55 | 87 | 0.0 | 1.0 | 0.00 | 0.16 | 0.00 | 95 | 1012.9 |
| 20260506025916 | 55 | 89 | 0.0 | 0.0 | 0.00 | 0.16 | 0.00 | 96 | 1012.6 |
| 20260506024940 | 55 | 80 | 0.0 | 0.0 | 0.00 | 0.16 | 0.00 | 96 | 1012.9 |
| 20260506024416 | 55 | 78 | 0.0 | 1.0 | 0.00 | 0.16 | 0.00 | 96 | 1012.9 |
| 20260506023915 | 55 | 53 | 0.0 | 1.0 | 0.00 | 0.16 | 0.00 | 96 | 1013.0 |
| 20260506023415 | 56 | 72 | 1.0 | 1.0 | 0.00 | 0.16 | 0.00 | 95 | 1013.2 |
| 20260506022915 | 55 | 144 | 0.0 | 0.0 | 0.00 | 0.16 | 0.00 | 95 | 1013.2 |
| 20260506022415 | 55 | 213 | 0.0 | 0.0 | 0.00 | 0.16 | 0.00 | 95 | 1013.1 |
| 20260506021417 | 55 | 258 | 0.0 | 1.0 | 0.00 | 0.16 | 0.00 | 95 | 1013.2 |
| 20260506020914 | 55 | 257 | 0.0 | 1.0 | 0.00 | 0.16 | 0.00 | 95 | 1012.9 |
| 20260506020414 | 55 | 248 | 0.0 | 1.0 | 0.00 | 0.16 | 0.00 | 95 | 1013.2 |
| 20260506015915 | 55 | 185 | 0.0 | 1.0 | 0.00 | 0.16 | 0.00 | 95 | 1013.0 |
| 20260506015415 | 55 | 99 | 0.0 | 1.0 | 0.00 | 0.16 | 0.00 | 95 | 1012.9 |
| 20260506014915 | 55 | 163 | 0.0 | 1.0 | 0.00 | 0.16 | 0.00 | 95 | 1013.2 |
| 20260506014415 | 55 | 180 | 0.0 | 1.0 | 0.00 | 0.16 | 0.00 | 95 | 1013.0 |
| 20260506013914 | 56 | 107 | 0.0 | 1.0 | 0.00 | 0.16 | 0.00 | 95 | 1013.1 |
| 20260506013415 | 56 | 159 | 0.0 | 1.0 | 0.00 | 0.16 | 0.00 | 95 | 1012.9 |
| 20260506012915 | 56 | 72 | 0.0 | 1.0 | 0.00 | 0.16 | 0.00 | 95 | 1013.2 |
| 20260506012414 | 56 | 146 | 0.0 | 0.0 | 0.00 | 0.16 | 0.00 | 95 | 1013.2 |
| 20260506011915 | 56 | 67 | 0.0 | 0.0 | 0.00 | 0.16 | 0.00 | 95 | 1013.0 |
| 20260506011417 | 56 | 67 | 0.0 | 1.0 | 0.00 | 0.16 | 0.00 | 95 | 1013.4 |
| 20260506010915 | 56 | 77 | 0.0 | 1.0 | 0.00 | 0.16 | 0.00 | 95 | 1013.5 |
| 20260506010414 | 56 | 114 | 0.0 | 0.0 | 0.00 | 0.16 | 0.00 | 95 | 1013.5 |
| 20260506005914 | 56 | 96 | 0.0 | 0.0 | 0.00 | 0.16 | 0.00 | 95 | 1013.5 |
| 20260506005414 | 56 | 93 | 0.0 | 1.0 | 0.00 | 0.16 | 0.00 | 95 | 1013.2 |
| 20260506004915 | 56 | 81 | 0.0 | 1.0 | 0.00 | 0.16 | 0.00 | 95 | 1013.3 |
| 20260506003914 | 56 | 245 | 0.0 | 1.0 | 0.00 | 0.16 | 0.00 | 95 | 1013.5 |
| 20260506003414 | 56 | 250 | 0.0 | 1.0 | 0.00 | 0.16 | 0.00 | 95 | 1013.5 |
| 20260506002914 | 56 | 47 | 0.0 | 1.0 | 0.00 | 0.16 | 0.00 | 95 | 1013.7 |
| 20260506002418 | 56 | 104 | 0.0 | 1.0 | 0.00 | 0.16 | 0.00 | 95 | 1013.5 |
| 20260506001915 | 56 | 92 | 0.0 | 1.0 | 0.00 | 0.16 | 0.00 | 95 | 1013.8 |
| 20260506000915 | 56 | 73 | 0.0 | 1.0 | 0.00 | 0.16 | 0.00 | 95 | 1013.6 |
| 20260506000416 | 56 | 78 | 0.0 | 1.0 | 0.00 | 0.16 | 0.00 | 95 | 1013.6 |
| 20260505235917 | 56 | 205 | 0.0 | 1.0 | 0.00 | 0.16 | 0.00 | 95 | 1013.9 |
| 20260505235415 | 56 | 245 | 0.0 | 1.0 | 0.00 | 0.16 | 0.00 | 95 | 1013.9 |
| 20260505234916 | 56 | 237 | 0.0 | 0.0 | 0.00 | 0.16 | 0.00 | 95 | 1013.7 |
| 20260505234415 | 56 | 228 | 0.0 | 0.0 | 0.00 | 0.16 | 0.00 | 95 | 1013.5 |
| 20260505233915 | 56 | 76 | 0.0 | 1.0 | 0.00 | 0.16 | 0.00 | 95 | 1013.9 |
| 20260505233414 | 56 | 76 | 0.0 | 1.0 | 0.00 | 0.16 | 0.00 | 95 | 1013.8 |
| 20260505232915 | 56 | 76 | 0.0 | 1.0 | 0.00 | 0.16 | 0.00 | 95 | 1013.9 |
| 20260505232415 | 56 | 74 | 0.0 | 1.0 | 0.00 | 0.16 | 0.00 | 95 | 1013.9 |
| 20260505231914 | 56 | 100 | 0.0 | 0.0 | 0.00 | 0.16 | 0.00 | 95 | 1014.2 |
| 20260505231415 | 56 | 100 | 0.0 | 0.0 | 0.00 | 0.16 | 0.00 | 95 | 1014.0 |
| 20260505230915 | 56 | 98 | 0.0 | 0.0 | 0.00 | 0.16 | 0.00 | 95 | 1014.1 |
| 20260505230415 | 56 | 78 | 0.0 | 0.0 | 0.00 | 0.16 | 0.00 | 95 | 1014.0 |
| 20260505225415 | 56 | 80 | 0.0 | 0.0 | 0.00 | 0.16 | 0.00 | 95 | 1014.2 |
| 20260505224915 | 56 | 80 | 0.0 | 1.0 | 0.00 | 0.16 | 0.00 | 95 | 1014.2 |
| 20260505224415 | 56 | 79 | 0.0 | 1.0 | 0.00 | 0.16 | 0.00 | 95 | 1013.9 |
| 20260505223915 | 56 | 139 | 0.0 | 1.0 | 0.00 | 0.16 | 0.00 | 95 | 1013.9 |
| 20260505223415 | 56 | 100 | 0.0 | 0.0 | 0.00 | 0.16 | 0.00 | 95 | 1014.0 |
| 20260505222915 | 56 | 67 | 0.0 | 1.0 | 0.00 | 0.16 | 0.00 | 95 | 1014.0 |
| 20260505222414 | 56 | 64 | 0.0 | 1.0 | 0.00 | 0.16 | 0.00 | 95 | 1013.9 |